QTR738 KSFO-OTHH

Flight info

Callsign QTR738
Flight time N/A
Altitude 33000
Route SNTNA2 DEDHD DCT KO51E DCT KO66G DCT KU78I DCT KU87K DCT KU06M DCT KU15O DCT KU21Q DCT DURUR DCT 52N100W 55N090W 58N080W DCT TUNNI DCT JELCO DCT GRIBS/M085F330 DCT KETLA DCT 63N050W 63N040W 62N030W/M085F350 61N020W DCT ATSIX/N0488F350 DCT AKIVO DCT KLONN DCT RASVI DCT KOLOB/N0483F370 DCT NUBLI N133 OVBOR DCT KOTEK DCT KENIN DCT DENAK DCT MAXOV DCT ARTAT UP975 EZS UG8 SRT/N0492F390 UG8 OTKEP UM688 RATVO M688 KEDIM DCT SISIN M688 SIDAD P975 LONOS L703 HAYYA HAYYA1J
Aircraft A35K/H-SDE2E3GHIJ3J4J5LM1ORWXY/LB1D1

Departure

Time N/A
Airport San Francisco International Airport (KSFO)

Arrival

Time 2026-05-04 03:13
Airport Hamad International Airport (OTHH)
Time Latitude Longitude Altitude Speed Heading
2026-05-03 22:31 49.74172 20.93609 36721 ft 495 kts 152°
2026-05-03 22:31 49.71057 20.95915 36989 ft 494 kts 152°
2026-05-03 22:32 49.67945 20.98217 37092 ft 498 kts 152°
2026-05-03 22:32 49.61671 21.02847 37100 ft 501 kts 152°
2026-05-03 22:33 49.55404 21.07455 37115 ft 500 kts 152°
2026-05-03 22:33 49.49118 21.12064 37114 ft 500 kts 152°
2026-05-03 22:34 49.42837 21.16656 37119 ft 500 kts 152°
2026-05-03 22:34 49.36536 21.21251 37082 ft 500 kts 152°
2026-05-03 22:35 49.30244 21.25829 37124 ft 500 kts 153°
2026-05-03 22:35 49.23993 21.30359 37124 ft 500 kts 153°
2026-05-03 22:36 49.17691 21.34914 37123 ft 500 kts 153°
2026-05-03 22:36 49.11379 21.39464 37128 ft 500 kts 153°
2026-05-03 22:37 49.05117 21.43965 37136 ft 500 kts 153°
2026-05-03 22:37 48.98783 21.48507 37121 ft 500 kts 153°
2026-05-03 22:38 48.92505 21.52995 37129 ft 500 kts 153°
2026-05-03 22:38 48.86192 21.57495 37151 ft 500 kts 153°
2026-05-03 22:39 48.79892 21.61974 37134 ft 500 kts 153°
2026-05-03 22:39 48.73600 21.66434 37147 ft 500 kts 153°
2026-05-03 22:40 48.67280 21.70902 37136 ft 500 kts 153°
2026-05-03 22:40 48.60961 21.75357 37135 ft 500 kts 153°
2026-05-03 22:41 48.54683 21.79771 37134 ft 500 kts 153°
2026-05-03 22:41 48.48370 21.84196 37129 ft 500 kts 153°
2026-05-03 22:42 48.42054 21.88613 37132 ft 500 kts 153°
2026-05-03 22:42 48.35959 21.93611 37129 ft 496 kts 141°
2026-05-03 22:43 48.30840 22.00379 37135 ft 493 kts 133°
2026-05-03 22:43 48.25935 22.07568 37136 ft 493 kts 133°
2026-05-03 22:44 48.21046 22.14790 37135 ft 493 kts 133°
2026-05-03 22:44 48.16167 22.21922 37141 ft 493 kts 133°
2026-05-03 22:45 48.11213 22.29107 37141 ft 493 kts 133°
2026-05-03 22:45 48.06319 22.36177 37140 ft 492 kts 133°
2026-05-03 22:46 48.01397 22.43270 37143 ft 492 kts 133°
2026-05-03 22:46 47.96459 22.50369 37145 ft 492 kts 133°
2026-05-03 22:47 47.91510 22.57462 37150 ft 492 kts 133°
2026-05-03 22:47 47.86572 22.64522 37153 ft 492 kts 133°
2026-05-03 22:48 47.81636 22.71558 37156 ft 492 kts 133°
2026-05-03 22:48 47.76663 22.78627 37158 ft 492 kts 133°
2026-05-03 22:49 47.71750 22.85592 37159 ft 492 kts 133°
2026-05-03 22:49 47.66784 22.92612 37157 ft 492 kts 133°
2026-05-03 22:50 47.61821 22.99611 37157 ft 492 kts 133°
2026-05-03 22:50 47.56858 23.06588 37162 ft 492 kts 133°
2026-05-03 22:51 47.51891 23.13552 37162 ft 492 kts 133°
2026-05-03 22:51 47.46933 23.20485 37161 ft 492 kts 133°
2026-05-03 22:52 47.41969 23.27407 37163 ft 492 kts 133°
2026-05-03 22:52 47.36970 23.34359 37171 ft 492 kts 133°
2026-05-03 22:53 47.31986 23.41272 37169 ft 492 kts 133°
2026-05-03 22:53 47.26999 23.48169 37173 ft 491 kts 133°
2026-05-03 22:54 47.22010 23.55049 37175 ft 491 kts 133°
2026-05-03 22:54 47.17010 23.61926 37175 ft 491 kts 133°
2026-05-03 22:55 47.12023 23.68767 37173 ft 490 kts 133°
2026-05-03 22:55 47.07066 23.75549 37169 ft 490 kts 133°
2026-05-03 22:56 47.02079 23.82356 37169 ft 489 kts 133°
2026-05-03 22:56 46.97119 23.89106 37169 ft 489 kts 133°
2026-05-03 22:57 46.92091 23.95932 37169 ft 488 kts 133°
2026-05-03 22:57 46.87149 24.02621 37171 ft 488 kts 133°
2026-05-03 22:58 46.82154 24.09366 37158 ft 488 kts 133°
2026-05-03 22:58 46.77151 24.16102 37187 ft 488 kts 133°
2026-05-03 22:59 46.72197 24.22756 37170 ft 488 kts 133°
2026-05-03 22:59 46.67162 24.29501 37167 ft 488 kts 133°
2026-05-03 23:00 46.62205 24.36123 37163 ft 488 kts 133°
2026-05-03 23:00 46.57201 24.42791 37159 ft 488 kts 133°
2026-05-03 23:01 46.52172 24.49475 37157 ft 488 kts 133°
2026-05-03 23:01 46.47168 24.56107 37163 ft 488 kts 133°
2026-05-03 23:02 46.42171 24.62714 37164 ft 488 kts 134°
2026-05-03 23:02 46.37142 24.69346 37170 ft 489 kts 134°
2026-05-03 23:03 46.32104 24.75971 37176 ft 489 kts 134°
2026-05-03 23:03 46.27057 24.82593 37166 ft 489 kts 134°
2026-05-03 23:04 46.22010 24.89197 37170 ft 490 kts 134°
2026-05-03 23:04 46.16981 24.95758 37172 ft 490 kts 134°
2026-05-03 23:05 46.11909 25.02360 37174 ft 490 kts 134°
2026-05-03 23:05 46.06846 25.08935 37172 ft 490 kts 134°
2026-05-03 23:06 46.01761 25.15521 37176 ft 490 kts 134°
2026-05-03 23:06 45.96721 25.22029 37170 ft 490 kts 134°
2026-05-03 23:07 45.91618 25.28602 37167 ft 490 kts 134°
2026-05-03 23:07 45.86533 25.35136 37143 ft 490 kts 134°
2026-05-03 23:08 45.81483 25.41608 37138 ft 490 kts 134°
2026-05-03 23:08 45.76382 25.48131 37132 ft 490 kts 135°
2026-05-03 23:09 45.71295 25.54618 37130 ft 490 kts 135°
2026-05-03 23:09 45.66187 25.61115 37132 ft 491 kts 135°
2026-05-03 23:10 45.61108 25.67561 37141 ft 491 kts 135°
2026-05-03 23:10 45.55994 25.74035 37153 ft 491 kts 135°
2026-05-03 23:11 45.50865 25.80509 37167 ft 491 kts 135°
2026-05-03 23:11 45.45777 25.86916 37178 ft 490 kts 136°
2026-05-03 23:12 45.40632 25.93381 37176 ft 490 kts 136°
2026-05-03 23:12 45.35545 25.99753 37177 ft 490 kts 136°
2026-05-03 23:13 45.30417 26.06159 37174 ft 490 kts 136°
2026-05-03 23:13 45.25324 26.12508 37167 ft 489 kts 136°
2026-05-03 23:14 45.20212 26.18865 37164 ft 489 kts 136°
2026-05-03 23:14 45.15091 26.25216 37156 ft 488 kts 136°
2026-05-03 23:15 45.09980 26.31540 37147 ft 488 kts 136°
2026-05-03 23:15 45.04856 26.37865 37147 ft 488 kts 136°
2026-05-03 23:16 44.99768 26.44129 37138 ft 488 kts 136°
2026-05-03 23:16 44.94392 26.50026 37134 ft 489 kts 142°
2026-05-03 23:17 44.89752 26.54626 37131 ft 489 kts 142°
2026-05-03 23:17 44.84204 26.60167 37130 ft 488 kts 142°
2026-05-03 23:18 44.78698 26.65784 37125 ft 488 kts 142°
2026-05-03 23:18 44.73224 26.71409 37127 ft 487 kts 142°
2026-05-03 23:19 44.67745 26.77030 37128 ft 487 kts 142°
2026-05-03 23:19 44.62273 26.82625 37126 ft 487 kts 142°
2026-05-03 23:20 44.56778 26.88226 37122 ft 486 kts 142°
2026-05-03 23:20 44.51302 26.93795 37124 ft 486 kts 142°
2026-05-03 23:21 44.45860 26.99316 37128 ft 486 kts 142°
2026-05-03 23:21 44.40355 27.04888 37121 ft 485 kts 142°
2026-05-03 23:22 44.32176 27.13143 37124 ft 485 kts 142°
2026-05-03 23:22 44.26699 27.18654 37121 ft 485 kts 142°
2026-05-03 23:23 44.21226 27.24148 37119 ft 486 kts 142°
2026-05-03 23:23 44.15744 27.29639 37118 ft 486 kts 143°
2026-05-03 23:24 44.10230 27.35150 37118 ft 487 kts 143°
2026-05-03 23:24 44.04758 27.40605 37121 ft 488 kts 143°
2026-05-03 23:25 43.99246 27.46086 37117 ft 487 kts 143°
2026-05-03 23:25 43.93723 27.51566 37116 ft 487 kts 143°
2026-05-03 23:26 43.88205 27.57028 37116 ft 487 kts 143°
2026-05-03 23:26 43.82716 27.62449 37117 ft 487 kts 143°
2026-05-03 23:27 43.77208 27.67876 37111 ft 485 kts 143°
2026-05-03 23:27 43.71679 27.73312 37112 ft 484 kts 143°
2026-05-03 23:28 43.66208 27.78678 37108 ft 481 kts 143°
2026-05-03 23:28 43.60873 27.84213 37106 ft 479 kts 136°
2026-05-03 23:29 43.56191 27.90737 37087 ft 477 kts 133°
2026-05-03 23:29 43.51662 27.97434 37092 ft 478 kts 132°
2026-05-03 23:30 43.47167 28.04110 37093 ft 477 kts 132°
2026-05-03 23:30 43.42629 28.10796 37071 ft 477 kts 132°
2026-05-03 23:31 43.38084 28.17453 37093 ft 477 kts 133°
2026-05-03 23:31 43.33523 28.24113 37076 ft 478 kts 133°
2026-05-03 23:32 43.28957 28.30765 37093 ft 478 kts 133°
2026-05-03 23:32 43.24409 28.37378 37092 ft 478 kts 133°
2026-05-03 23:33 43.19845 28.43999 37066 ft 477 kts 133°
2026-05-03 23:33 43.15276 28.50612 37065 ft 477 kts 133°
2026-05-03 23:34 43.10734 28.57169 37082 ft 476 kts 133°
2026-05-03 23:34 43.06168 28.63746 37060 ft 476 kts 133°
2026-05-03 23:35 43.01594 28.70321 37058 ft 477 kts 133°
2026-05-03 23:35 42.97014 28.76889 37073 ft 477 kts 134°
2026-05-03 23:36 42.92424 28.83453 37047 ft 478 kts 134°
2026-05-03 23:36 42.88064 28.89675 37046 ft 478 kts 134°
2026-05-03 23:37 42.83460 28.96232 37059 ft 478 kts 134°
2026-05-03 23:37 42.78858 29.02769 37038 ft 478 kts 134°
2026-05-03 23:38 42.74247 29.09307 37040 ft 478 kts 134°
2026-05-03 23:38 42.69636 29.15827 37032 ft 477 kts 134°
2026-05-03 23:39 42.65062 29.22282 37027 ft 477 kts 134°
2026-05-03 23:39 42.60460 29.28762 37026 ft 475 kts 134°
2026-05-03 23:40 42.55865 29.35217 37016 ft 474 kts 134°
2026-05-03 23:40 42.51305 29.41609 37015 ft 474 kts 134°
2026-05-03 23:41 42.46708 29.48037 37011 ft 473 kts 135°
2026-05-03 23:41 42.42147 29.54398 37005 ft 472 kts 135°
2026-05-03 23:42 42.37765 29.61035 37001 ft 473 kts 126°
2026-05-03 23:42 42.34730 29.68927 36998 ft 475 kts 112°
2026-05-03 23:43 42.32529 29.77288 36988 ft 475 kts 110°
2026-05-03 23:43 42.30431 29.85754 36980 ft 475 kts 110°
2026-05-03 23:44 42.28314 29.94199 36979 ft 474 kts 110°
2026-05-03 23:44 42.26166 30.02625 36972 ft 474 kts 111°
2026-05-03 23:45 42.24002 30.11040 36974 ft 474 kts 111°
2026-05-03 23:45 42.21835 30.19435 36965 ft 473 kts 111°
2026-05-03 23:46 42.19665 30.27812 36966 ft 473 kts 111°
2026-05-03 23:46 42.17507 30.36122 36957 ft 472 kts 111°
2026-05-03 23:47 42.15416 30.44142 36948 ft 472 kts 111°
2026-05-03 23:47 42.13234 30.52488 36951 ft 471 kts 111°
2026-05-03 23:48 42.11051 30.60808 36946 ft 470 kts 111°
2026-05-03 23:48 42.08876 30.69066 36938 ft 470 kts 111°
2026-05-03 23:49 42.06684 30.77362 36938 ft 470 kts 111°
2026-05-03 23:49 42.04491 30.85634 36940 ft 469 kts 111°
2026-05-03 23:50 42.02662 30.92514 36937 ft 469 kts 111°
2026-05-03 23:50 42.00087 31.02167 36926 ft 469 kts 111°
2026-05-03 23:51 41.97884 31.10410 36920 ft 469 kts 111°
2026-05-03 23:51 41.95676 31.18649 36915 ft 469 kts 111°
2026-05-03 23:52 41.93471 31.26847 36908 ft 469 kts 111°
2026-05-03 23:52 41.91252 31.35072 36909 ft 469 kts 111°
2026-05-03 23:53 41.89024 31.43303 36910 ft 469 kts 111°
2026-05-03 23:53 41.86786 31.51543 36907 ft 468 kts 111°
2026-05-03 23:54 41.84554 31.59732 36898 ft 468 kts 111°
2026-05-03 23:54 41.82330 31.67867 36895 ft 467 kts 111°
2026-05-03 23:55 41.80075 31.76051 36888 ft 467 kts 111°
2026-05-03 23:55 41.77817 31.84225 36880 ft 467 kts 112°
2026-05-03 23:56 41.75557 31.92385 36872 ft 467 kts 112°
2026-05-03 23:56 41.73284 32.00567 36866 ft 467 kts 112°
2026-05-03 23:57 41.71011 32.08725 36854 ft 469 kts 112°
2026-05-03 23:57 41.68738 32.16874 36866 ft 469 kts 111°
2026-05-03 23:58 41.66450 32.25063 36864 ft 470 kts 111°
2026-05-03 23:58 41.64164 32.33247 36843 ft 470 kts 112°
2026-05-03 23:59 41.61864 32.41427 36850 ft 470 kts 112°
2026-05-03 23:59 41.59546 32.49590 36849 ft 469 kts 112°
2026-05-04 00:00 41.57230 32.57749 36845 ft 469 kts 112°
2026-05-04 00:00 41.54924 32.65845 36850 ft 469 kts 112°
2026-05-04 00:01 41.52600 32.73984 36849 ft 469 kts 112°
2026-05-04 00:01 41.50270 32.82120 36849 ft 469 kts 112°
2026-05-04 00:02 41.47936 32.90248 36853 ft 469 kts 112°
2026-05-04 00:02 41.45558 32.98327 36850 ft 468 kts 116°
2026-05-04 00:03 41.42586 33.05977 36849 ft 467 kts 120°
2026-05-04 00:03 41.39438 33.13571 36849 ft 468 kts 120°
2026-05-04 00:04 41.36266 33.21139 36850 ft 468 kts 120°
2026-05-04 00:04 41.33633 33.27466 36842 ft 469 kts 120°
2026-05-04 00:05 41.30551 33.35120 36837 ft 470 kts 119°
2026-05-04 00:05 41.27493 33.42800 36831 ft 470 kts 119°
2026-05-04 00:06 41.24464 33.50508 36830 ft 471 kts 119°
2026-05-04 00:06 41.21427 33.58213 36822 ft 471 kts 119°
2026-05-04 00:07 41.18388 33.65875 36816 ft 471 kts 119°
2026-05-04 00:07 41.15316 33.73586 36810 ft 471 kts 120°
2026-05-04 00:08 41.12247 33.81271 36807 ft 471 kts 120°
2026-05-04 00:08 41.09171 33.88954 36803 ft 471 kts 120°
2026-05-04 00:09 41.06108 33.96586 36798 ft 471 kts 120°
2026-05-04 00:09 41.03019 34.04264 36787 ft 472 kts 120°
2026-05-04 00:10 40.99924 34.11935 36785 ft 472 kts 120°
2026-05-04 00:10 40.96849 34.19537 36781 ft 472 kts 120°
2026-05-04 00:11 40.93745 34.27191 36784 ft 472 kts 120°
2026-05-04 00:11 40.90637 34.34838 36775 ft 471 kts 120°
2026-05-04 00:12 40.87524 34.42475 36773 ft 471 kts 121°
2026-05-04 00:12 40.84412 34.50089 36773 ft 471 kts 121°
2026-05-04 00:13 40.81290 34.57711 36772 ft 471 kts 121°
2026-05-04 00:13 40.78167 34.65317 36773 ft 471 kts 121°
2026-05-04 00:14 40.75057 34.72869 36768 ft 471 kts 121°
2026-05-04 00:14 40.71886 34.80429 36765 ft 471 kts 122°
2026-05-04 00:15 40.68632 34.87932 36759 ft 471 kts 122°
2026-05-04 00:15 40.65371 34.95435 36745 ft 471 kts 122°
2026-05-04 00:16 40.62137 35.02899 36744 ft 472 kts 122°
2026-05-04 00:16 40.58881 35.10414 36743 ft 472 kts 122°
2026-05-04 00:17 40.55614 35.17937 36742 ft 473 kts 122°
2026-05-04 00:17 40.52342 35.25452 36745 ft 474 kts 122°
2026-05-04 00:18 40.49057 35.32977 36746 ft 474 kts 122°
2026-05-04 00:18 40.45769 35.40490 36745 ft 474 kts 122°
2026-05-04 00:19 40.42494 35.47954 36748 ft 475 kts 122°
2026-05-04 00:19 40.39192 35.55463 36747 ft 475 kts 122°
2026-05-04 00:20 40.35870 35.62998 36751 ft 476 kts 122°
2026-05-04 00:20 40.32547 35.70519 36752 ft 477 kts 122°
2026-05-04 00:21 40.29215 35.78040 36760 ft 478 kts 123°
2026-05-04 00:21 40.25874 35.85562 36761 ft 478 kts 123°
2026-05-04 00:22 40.22515 35.93105 36765 ft 479 kts 123°
2026-05-04 00:22 40.19150 36.00645 36764 ft 480 kts 123°
2026-05-04 00:23 40.15795 36.08146 36764 ft 481 kts 123°
2026-05-04 00:23 40.12406 36.15703 36766 ft 482 kts 123°
2026-05-04 00:24 40.09013 36.23249 36758 ft 482 kts 123°
2026-05-04 00:24 40.05612 36.30797 36757 ft 482 kts 123°
2026-05-04 00:25 40.02205 36.38337 36754 ft 482 kts 123°
2026-05-04 00:25 39.98789 36.45881 36753 ft 482 kts 124°
2026-05-04 00:26 39.95371 36.53413 36747 ft 482 kts 124°
2026-05-04 00:26 39.91949 36.60934 36747 ft 482 kts 124°
2026-05-04 00:27 39.88544 36.68399 36747 ft 481 kts 124°
2026-05-04 00:27 39.85115 36.75898 36759 ft 482 kts 124°
2026-05-04 00:28 39.81683 36.83384 36747 ft 482 kts 125°
2026-05-04 00:28 39.78258 36.90843 36736 ft 482 kts 124°
2026-05-04 00:29 39.74867 36.98387 36750 ft 484 kts 124°
2026-05-04 00:29 39.71485 37.05975 36743 ft 485 kts 124°
2026-05-04 00:30 39.68088 37.13561 36755 ft 486 kts 124°
2026-05-04 00:30 39.64690 37.21113 36757 ft 487 kts 125°
2026-05-04 00:31 39.61259 37.28710 36763 ft 487 kts 125°
2026-05-04 00:31 39.57822 37.36301 36759 ft 488 kts 125°
2026-05-04 00:32 39.54390 37.43851 36758 ft 489 kts 126°
2026-05-04 00:32 39.50945 37.51420 36759 ft 489 kts 126°
2026-05-04 00:33 39.45762 37.62778 36761 ft 487 kts 126°
2026-05-04 00:34 39.42302 37.70327 36761 ft 486 kts 126°
2026-05-04 00:34 39.38863 37.77793 36757 ft 486 kts 127°
2026-05-04 00:35 39.35398 37.85298 36755 ft 485 kts 127°
2026-05-04 00:35 39.31954 37.92741 36756 ft 484 kts 127°
2026-05-04 00:36 39.28493 38.00205 36752 ft 484 kts 127°
2026-05-04 00:36 39.25033 38.07649 36746 ft 484 kts 127°
2026-05-04 00:37 39.21563 38.15100 36749 ft 484 kts 127°
2026-05-04 00:37 39.18090 38.22539 36742 ft 484 kts 128°
2026-05-04 00:38 39.14615 38.29962 36759 ft 484 kts 128°
2026-05-04 00:38 39.11130 38.37393 36757 ft 484 kts 128°
2026-05-04 00:39 39.07655 38.44783 36763 ft 485 kts 128°
2026-05-04 00:39 39.04153 38.52211 36766 ft 486 kts 128°
2026-05-04 00:40 39.00641 38.59653 36762 ft 486 kts 128°
2026-05-04 00:40 38.97140 38.67038 36776 ft 487 kts 128°
2026-05-04 00:41 38.93609 38.74483 36777 ft 488 kts 128°
2026-05-04 00:41 38.90071 38.81927 36785 ft 489 kts 128°
2026-05-04 00:42 38.86522 38.89373 36785 ft 489 kts 128°
2026-05-04 00:42 38.82966 38.96821 36790 ft 490 kts 128°
2026-05-04 00:43 38.79419 39.04303 36795 ft 491 kts 128°
2026-05-04 00:43 38.75874 39.11789 36799 ft 492 kts 128°
2026-05-04 00:44 38.72340 39.19230 36798 ft 492 kts 129°
2026-05-04 00:44 38.69404 39.27279 36801 ft 503 kts 118°
2026-05-04 00:45 38.66921 39.35633 36799 ft 505 kts 117°
2026-05-04 00:45 38.64477 39.44118 36802 ft 505 kts 117°
2026-05-04 00:46 38.62042 39.52517 36806 ft 506 kts 118°
2026-05-04 00:46 38.59617 39.60929 36815 ft 507 kts 117°
2026-05-04 00:47 38.57181 39.69408 36823 ft 507 kts 117°
2026-05-04 00:47 38.54728 39.77895 36838 ft 508 kts 118°
2026-05-04 00:48 38.52290 39.86292 36836 ft 507 kts 118°
2026-05-04 00:48 38.49826 39.94749 36853 ft 507 kts 118°
2026-05-04 00:49 38.47354 40.03198 36854 ft 508 kts 118°
2026-05-04 00:49 38.44871 40.11662 36860 ft 509 kts 118°
2026-05-04 00:50 38.42401 40.20067 36868 ft 510 kts 118°
2026-05-04 00:50 38.39892 40.28571 36871 ft 511 kts 118°
2026-05-04 00:51 38.37397 40.36997 36873 ft 511 kts 118°
2026-05-04 00:51 38.34874 40.45492 36880 ft 512 kts 118°
2026-05-04 00:52 38.32343 40.53994 36876 ft 513 kts 118°
2026-05-04 00:52 38.29817 40.62447 36874 ft 513 kts 118°
2026-05-04 00:53 38.27269 40.70952 36876 ft 514 kts 118°
2026-05-04 00:53 38.25145 40.78019 36876 ft 515 kts 118°
2026-05-04 00:54 38.22572 40.86529 36887 ft 515 kts 119°
2026-05-04 00:54 38.19931 40.95012 36882 ft 515 kts 119°
2026-05-04 00:55 38.17270 41.03494 36879 ft 516 kts 119°
2026-05-04 00:55 38.14630 41.11921 36878 ft 517 kts 119°
2026-05-04 00:56 38.11996 41.20431 36878 ft 518 kts 119°
2026-05-04 00:56 38.09391 41.28976 36877 ft 519 kts 119°
2026-05-04 00:57 38.06776 41.37524 36880 ft 519 kts 119°
2026-05-04 00:57 38.04146 41.46069 36877 ft 520 kts 119°
2026-05-04 00:58 38.01503 41.54624 36883 ft 521 kts 119°
2026-05-04 00:58 37.98873 41.63118 36885 ft 522 kts 119°
2026-05-04 00:59 37.96212 41.71691 36884 ft 522 kts 119°
2026-05-04 00:59 37.93539 41.80276 36884 ft 524 kts 119°
2026-05-04 01:00 37.91227 41.89120 36895 ft 538 kts 108°
2026-05-04 01:00 37.90321 41.98608 36890 ft 545 kts 101°
2026-05-04 01:01 37.89735 42.08148 36896 ft 547 kts 100°
2026-05-04 01:01 37.89169 42.17745 36899 ft 546 kts 101°
2026-05-04 01:02 37.88557 42.27341 36908 ft 546 kts 101°
2026-05-04 01:02 37.87919 42.36926 36912 ft 546 kts 101°
2026-05-04 01:03 37.87272 42.46447 36915 ft 546 kts 101°
2026-05-04 01:03 37.86611 42.56055 36915 ft 547 kts 101°
2026-05-04 01:04 37.85390 42.65466 36922 ft 533 kts 115°
2026-05-04 01:04 37.84011 42.69753 36927 ft 521 kts 126°
2026-05-04 01:04 37.82315 42.73700 36934 ft 518 kts 128°
2026-05-04 01:05 37.78625 42.81507 36938 ft 516 kts 130°
2026-05-04 01:05 37.74850 42.89248 36946 ft 517 kts 130°
2026-05-04 01:06 37.71091 42.96996 36952 ft 517 kts 130°
2026-05-04 01:06 37.67340 43.04772 36958 ft 518 kts 129°
2026-05-04 01:07 37.63589 43.12555 36956 ft 519 kts 129°
2026-05-04 01:07 37.59852 43.20289 36965 ft 520 kts 130°
2026-05-04 01:08 37.56083 43.28071 36960 ft 520 kts 130°
2026-05-04 01:08 37.52306 43.35853 36979 ft 520 kts 130°
2026-05-04 01:09 37.48522 43.43631 36974 ft 520 kts 130°
2026-05-04 01:09 37.44754 43.51346 36978 ft 519 kts 130°
2026-05-04 01:10 37.40967 43.59087 36995 ft 520 kts 130°
2026-05-04 01:10 37.37182 43.66809 36975 ft 518 kts 130°
2026-05-04 01:11 37.33405 43.74489 36980 ft 520 kts 130°
2026-05-04 01:11 37.29590 43.82234 36987 ft 521 kts 130°
2026-05-04 01:12 37.25477 43.89594 36986 ft 506 kts 142°
2026-05-04 01:12 37.22951 43.92591 36985 ft 491 kts 152°
2026-05-04 01:12 37.20168 43.94953 36984 ft 477 kts 161°
2026-05-04 01:13 37.14221 43.98190 36991 ft 466 kts 169°
2026-05-04 01:13 37.08132 44.00978 36962 ft 464 kts 169°
2026-05-04 01:14 37.02054 44.03726 36973 ft 465 kts 169°
2026-05-04 01:14 36.95971 44.06521 36984 ft 466 kts 169°
2026-05-04 01:15 36.89885 44.09341 36969 ft 465 kts 169°
2026-05-04 01:15 36.83815 44.12159 36964 ft 465 kts 170°
2026-05-04 01:16 36.77779 44.14953 36950 ft 464 kts 170°
2026-05-04 01:16 36.71697 44.17618 36964 ft 461 kts 172°
2026-05-04 01:17 36.65575 44.20055 36946 ft 461 kts 173°
2026-05-04 01:17 36.59465 44.22493 36944 ft 460 kts 173°
2026-05-04 01:18 36.53390 44.24953 36935 ft 460 kts 173°
2026-05-04 01:18 36.47290 44.27438 36933 ft 460 kts 173°
2026-05-04 01:19 36.41228 44.29907 36929 ft 461 kts 173°
2026-05-04 01:19 36.35132 44.32382 36919 ft 461 kts 173°
2026-05-04 01:20 36.29039 44.34851 36923 ft 461 kts 173°
2026-05-04 01:20 36.22936 44.37319 36926 ft 462 kts 173°
2026-05-04 01:21 36.16828 44.39784 36916 ft 461 kts 173°
2026-05-04 01:21 36.10760 44.42232 36912 ft 461 kts 173°
2026-05-04 01:22 36.04653 44.44690 36912 ft 461 kts 173°
2026-05-04 01:22 35.98537 44.47147 36911 ft 462 kts 173°
2026-05-04 01:23 35.92427 44.49599 36904 ft 462 kts 173°
2026-05-04 01:23 35.86331 44.52041 36905 ft 462 kts 173°
2026-05-04 01:24 35.80210 44.54490 36903 ft 462 kts 174°
2026-05-04 01:24 35.74074 44.56939 36906 ft 463 kts 174°
2026-05-04 01:25 35.67979 44.59370 36902 ft 462 kts 174°
2026-05-04 01:25 35.61853 44.61809 36904 ft 462 kts 174°
2026-05-04 01:26 35.55726 44.64244 36905 ft 463 kts 174°
2026-05-04 01:26 35.49593 44.66677 36914 ft 463 kts 174°
2026-05-04 01:27 35.43477 44.69100 36915 ft 463 kts 174°
2026-05-04 01:27 35.37340 44.71526 36917 ft 464 kts 174°
2026-05-04 01:28 35.31182 44.73957 36917 ft 464 kts 174°
2026-05-04 01:28 35.25028 44.76383 36914 ft 465 kts 174°
2026-05-04 01:29 35.18856 44.78812 36917 ft 465 kts 174°
2026-05-04 01:29 35.12725 44.81222 36918 ft 466 kts 174°
2026-05-04 01:30 35.06538 44.83649 36913 ft 467 kts 174°
2026-05-04 01:30 35.00344 44.86075 36915 ft 467 kts 174°
2026-05-04 01:31 34.94143 44.88500 36915 ft 468 kts 174°
2026-05-04 01:31 34.87931 44.90926 36913 ft 468 kts 174°
2026-05-04 01:32 34.81746 44.93337 36908 ft 469 kts 174°
2026-05-04 01:32 34.75535 44.95755 36907 ft 469 kts 174°
2026-05-04 01:33 34.69306 44.98176 36907 ft 469 kts 174°
2026-05-04 01:33 34.63122 45.00576 36906 ft 469 kts 174°
2026-05-04 01:34 34.56877 45.02995 36906 ft 470 kts 174°
2026-05-04 01:34 34.50640 45.05408 36904 ft 470 kts 174°
2026-05-04 01:35 34.44399 45.07819 36904 ft 470 kts 174°
2026-05-04 01:35 34.38204 45.10207 36905 ft 470 kts 174°
2026-05-04 01:36 34.31964 45.12608 36907 ft 470 kts 174°
2026-05-04 01:36 34.25724 45.15006 36913 ft 470 kts 174°
2026-05-04 01:37 34.19474 45.17404 36902 ft 471 kts 174°
2026-05-04 01:37 34.13262 45.19785 36908 ft 471 kts 174°
2026-05-04 01:38 34.07013 45.22176 36907 ft 471 kts 174°
2026-05-04 01:38 34.00745 45.24570 36906 ft 471 kts 174°
2026-05-04 01:39 33.94527 45.26942 36914 ft 471 kts 174°
2026-05-04 01:39 33.88270 45.29325 36913 ft 472 kts 174°
2026-05-04 01:40 33.81999 45.31709 36918 ft 472 kts 174°
2026-05-04 01:40 33.75723 45.34092 36919 ft 472 kts 174°
2026-05-04 01:41 33.69490 45.36454 36925 ft 472 kts 174°
2026-05-04 01:41 33.63214 45.38829 36923 ft 473 kts 174°
2026-05-04 01:42 33.56939 45.41200 36930 ft 473 kts 174°
2026-05-04 01:42 33.51721 45.43169 36932 ft 473 kts 174°
2026-05-04 01:43 33.45429 45.45541 36930 ft 473 kts 174°
2026-05-04 01:43 33.39132 45.47910 36933 ft 474 kts 174°
2026-05-04 01:44 33.32844 45.50273 36930 ft 474 kts 174°
2026-05-04 01:44 33.26550 45.52634 36925 ft 474 kts 174°
2026-05-04 01:45 33.20299 45.54975 36924 ft 474 kts 174°
2026-05-04 01:45 33.10849 45.58509 36919 ft 473 kts 174°
2026-05-04 01:46 33.04562 45.60855 36919 ft 473 kts 174°
2026-05-04 01:46 32.98261 45.63203 36917 ft 473 kts 174°
2026-05-04 01:47 32.92013 45.65527 36911 ft 473 kts 174°
2026-05-04 01:47 32.85729 45.67992 36908 ft 482 kts 169°
2026-05-04 01:48 32.82676 45.69782 36909 ft 496 kts 160°
2026-05-04 01:48 32.79776 45.72108 36909 ft 506 kts 155°
2026-05-04 01:48 32.74155 45.77235 36907 ft 511 kts 153°
2026-05-04 01:49 32.68624 45.82479 36903 ft 512 kts 152°
2026-05-04 01:49 32.63037 45.87740 36910 ft 512 kts 153°
2026-05-04 01:50 32.57428 45.92962 36908 ft 512 kts 153°
2026-05-04 01:50 32.51810 45.98166 36903 ft 512 kts 153°
2026-05-04 01:51 32.49031 46.00736 37047 ft 513 kts 153°
2026-05-04 01:51 32.46215 46.03340 37403 ft 511 kts 153°
2026-05-04 01:51 32.43418 46.05929 37784 ft 509 kts 154°
2026-05-04 01:51 32.40632 46.08505 38127 ft 507 kts 154°
2026-05-04 01:52 32.37843 46.11080 38452 ft 506 kts 154°
2026-05-04 01:52 32.35065 46.13640 38717 ft 505 kts 154°
2026-05-04 01:52 32.32295 46.16190 38873 ft 507 kts 154°
2026-05-04 01:52 32.29502 46.18755 38893 ft 508 kts 154°
2026-05-04 01:53 32.23929 46.23878 38893 ft 507 kts 154°
2026-05-04 01:53 32.18366 46.28985 38884 ft 506 kts 154°
2026-05-04 01:54 32.12832 46.34056 38881 ft 506 kts 154°
2026-05-04 01:54 32.07271 46.39144 38877 ft 505 kts 154°
2026-05-04 01:55 32.01703 46.44230 38874 ft 505 kts 154°
2026-05-04 01:55 31.96136 46.49307 38864 ft 505 kts 154°
2026-05-04 01:56 31.90610 46.54338 38863 ft 505 kts 154°
2026-05-04 01:56 31.85041 46.59399 38863 ft 506 kts 154°
2026-05-04 01:57 31.79463 46.64462 38852 ft 507 kts 154°
2026-05-04 01:57 31.73877 46.69524 38847 ft 507 kts 154°
2026-05-04 01:58 31.68280 46.74588 38843 ft 508 kts 154°
2026-05-04 01:58 31.62707 46.79623 38848 ft 508 kts 154°
2026-05-04 01:59 31.57098 46.84683 38822 ft 509 kts 154°
2026-05-04 01:59 31.51463 46.89757 38827 ft 510 kts 154°
2026-05-04 02:00 31.45822 46.94830 38823 ft 511 kts 154°
2026-05-04 02:00 31.40165 46.99909 38827 ft 512 kts 154°
2026-05-04 02:01 31.34530 47.04960 38829 ft 513 kts 154°
2026-05-04 02:01 31.28854 47.10040 38823 ft 514 kts 154°
2026-05-04 02:02 31.23160 47.15129 38828 ft 515 kts 154°
2026-05-04 02:02 31.17458 47.20216 38822 ft 516 kts 154°
2026-05-04 02:03 31.11781 47.25273 38825 ft 517 kts 154°
2026-05-04 02:03 31.06045 47.30376 38825 ft 517 kts 154°
2026-05-04 02:04 31.00309 47.35471 38825 ft 518 kts 154°
2026-05-04 02:04 30.94604 47.40532 38825 ft 519 kts 154°
2026-05-04 02:05 30.89091 47.45413 38826 ft 519 kts 154°
2026-05-04 02:05 30.83376 47.50467 38828 ft 520 kts 154°
2026-05-04 02:06 30.77798 47.56002 38826 ft 530 kts 148°
2026-05-04 02:06 30.72403 47.61856 38826 ft 531 kts 148°
2026-05-04 02:07 30.66978 47.67669 38833 ft 530 kts 148°
2026-05-04 02:07 30.61507 47.73406 38830 ft 529 kts 149°
2026-05-04 02:08 30.56056 47.79068 38826 ft 529 kts 149°
2026-05-04 02:08 30.50569 47.84755 38828 ft 528 kts 149°
2026-05-04 02:09 30.45086 47.90434 38826 ft 528 kts 149°
2026-05-04 02:09 30.39608 47.96102 38810 ft 527 kts 148°
2026-05-04 02:10 30.34140 48.01752 38807 ft 526 kts 148°
2026-05-04 02:10 30.28679 48.07385 38806 ft 525 kts 148°
2026-05-04 02:11 30.23221 48.13006 38805 ft 525 kts 148°
2026-05-04 02:11 30.17986 48.18387 38812 ft 525 kts 148°
2026-05-04 02:12 30.12566 48.23952 38824 ft 525 kts 148°
2026-05-04 02:12 30.07105 48.29550 38825 ft 525 kts 148°
2026-05-04 02:13 30.01631 48.35153 38835 ft 525 kts 148°
2026-05-04 02:13 29.96186 48.40718 38834 ft 525 kts 148°
2026-05-04 02:14 29.90702 48.46314 38834 ft 526 kts 148°
2026-05-04 02:14 29.84845 48.51052 38840 ft 506 kts 161°
2026-05-04 02:15 29.78622 48.54812 38832 ft 503 kts 163°
2026-05-04 02:15 29.72398 48.58379 38841 ft 502 kts 164°
2026-05-04 02:16 29.66135 48.61959 38833 ft 503 kts 163°
2026-05-04 02:16 29.59870 48.65564 38836 ft 503 kts 163°
2026-05-04 02:17 29.53612 48.69174 38833 ft 503 kts 163°
2026-05-04 02:17 29.47614 48.72632 38833 ft 503 kts 163°
2026-05-04 02:18 29.41353 48.76235 38834 ft 503 kts 163°
2026-05-04 02:18 29.35124 48.79827 38838 ft 503 kts 163°
2026-05-04 02:19 29.28857 48.83432 38837 ft 503 kts 163°
2026-05-04 02:19 29.22591 48.87030 38838 ft 503 kts 163°
2026-05-04 02:20 29.16364 48.90603 38841 ft 503 kts 163°
2026-05-04 02:20 29.10102 48.94191 38842 ft 504 kts 163°
2026-05-04 02:21 29.03827 48.97773 38836 ft 504 kts 163°
2026-05-04 02:21 28.97544 49.01353 38841 ft 504 kts 163°
2026-05-04 02:22 28.91265 49.04929 38847 ft 504 kts 163°
2026-05-04 02:22 28.86087 49.07875 38847 ft 504 kts 162°
2026-05-04 02:23 28.79410 49.11768 38839 ft 506 kts 161°
2026-05-04 02:23 28.73172 49.15498 38842 ft 507 kts 161°
2026-05-04 02:24 28.66923 49.19221 38845 ft 506 kts 161°
2026-05-04 02:24 28.60662 49.22929 38844 ft 506 kts 161°
2026-05-04 02:25 28.54402 49.26615 38844 ft 506 kts 161°
2026-05-04 02:25 28.48458 49.31039 38843 ft 521 kts 149°
2026-05-04 02:26 28.42891 49.36384 38841 ft 524 kts 146°
2026-05-04 02:26 28.37412 49.41870 38847 ft 525 kts 146°
2026-05-04 02:27 28.31960 49.47323 38846 ft 525 kts 146°
2026-05-04 02:27 28.26468 49.52771 38848 ft 524 kts 146°
2026-05-04 02:28 28.20949 49.58205 38846 ft 524 kts 146°
2026-05-04 02:28 28.16232 49.62449 38846 ft 519 kts 151°
2026-05-04 02:29 28.09475 49.68076 38845 ft 518 kts 151°
2026-05-04 02:29 28.03677 49.72941 38846 ft 518 kts 151°
2026-05-04 02:30 27.98782 49.76828 38848 ft 515 kts 153°
2026-05-04 02:30 27.92824 49.81360 38853 ft 515 kts 154°
2026-05-04 02:31 27.86889 49.85898 38848 ft 515 kts 153°
2026-05-04 02:31 27.80959 49.90480 38846 ft 515 kts 153°
2026-05-04 02:32 27.75083 49.95035 38848 ft 515 kts 153°
2026-05-04 02:32 27.69166 49.99609 38847 ft 515 kts 153°
2026-05-04 02:33 27.63239 50.04182 38847 ft 515 kts 153°
2026-05-04 02:33 27.57362 50.08712 38849 ft 514 kts 153°
2026-05-04 02:34 27.51442 50.13269 38851 ft 514 kts 153°
2026-05-04 02:34 27.45534 50.17812 38849 ft 514 kts 153°
2026-05-04 02:35 27.39935 50.22216 38849 ft 515 kts 151°
2026-05-04 02:35 27.34131 50.26965 38844 ft 515 kts 150°
2026-05-04 02:36 27.28333 50.31705 38847 ft 515 kts 150°
2026-05-04 02:36 27.22519 50.36427 38848 ft 515 kts 151°
2026-05-04 02:37 27.16723 50.41104 38848 ft 514 kts 151°
2026-05-04 02:37 27.10899 50.45792 38848 ft 514 kts 150°
2026-05-04 02:38 27.05075 50.50479 38846 ft 514 kts 150°
2026-05-04 02:38 26.99286 50.55140 38845 ft 515 kts 150°
2026-05-04 02:39 26.93550 50.59982 38845 ft 518 kts 146°
2026-05-04 02:39 26.88047 50.65246 38841 ft 520 kts 145°
2026-05-04 02:40 26.82558 50.70534 38837 ft 520 kts 145°
2026-05-04 02:40 26.77033 50.75747 38833 ft 519 kts 146°
2026-05-04 02:41 26.71489 50.80918 38833 ft 519 kts 146°
2026-05-04 02:41 26.65924 50.86090 38835 ft 519 kts 146°
2026-05-04 02:42 26.60400 50.91222 38838 ft 519 kts 146°
2026-05-04 02:42 26.54838 50.96386 38553 ft 519 kts 146°
2026-05-04 02:43 26.52063 50.98959 38285 ft 519 kts 146°
2026-05-04 02:43 26.49279 51.01540 38038 ft 520 kts 146°
2026-05-04 02:43 26.46492 51.04120 37769 ft 520 kts 146°
2026-05-04 02:43 26.43703 51.06702 37498 ft 521 kts 146°
2026-05-04 02:44 26.40904 51.09291 37235 ft 522 kts 146°
2026-05-04 02:44 26.38110 51.11874 36984 ft 522 kts 146°
2026-05-04 02:44 26.35312 51.14463 36726 ft 523 kts 146°
2026-05-04 02:44 26.32511 51.17054 36465 ft 524 kts 146°
2026-05-04 02:45 26.29738 51.19616 36235 ft 525 kts 146°
2026-05-04 02:45 26.26922 51.22211 35999 ft 525 kts 146°
2026-05-04 02:45 26.24101 51.24808 35750 ft 526 kts 146°
2026-05-04 02:45 26.21280 51.27406 35514 ft 527 kts 146°
2026-05-04 02:46 26.18463 51.30000 35071 ft 524 kts 146°
2026-05-04 02:46 26.15649 51.32590 34392 ft 525 kts 146°
2026-05-04 02:46 26.12822 51.35187 33608 ft 528 kts 146°
2026-05-04 02:46 26.09908 51.37670 32763 ft 524 kts 153°
2026-05-04 02:47 26.06672 51.39427 31970 ft 513 kts 167°
2026-05-04 02:47 26.03221 51.40213 31187 ft 500 kts 182°
2026-05-04 02:47 25.99784 51.40275 30396 ft 497 kts 187°
2026-05-04 02:47 25.96320 51.40197 29551 ft 499 kts 187°
2026-05-04 02:48 25.92824 51.40124 28673 ft 500 kts 186°
2026-05-04 02:48 25.89399 51.40071 28079 ft 495 kts 185°
2026-05-04 02:48 25.85975 51.40028 27497 ft 490 kts 185°
2026-05-04 02:48 25.82577 51.39991 26913 ft 486 kts 185°
2026-05-04 02:49 25.79214 51.39957 26328 ft 482 kts 184°
2026-05-04 02:49 25.75867 51.39924 25739 ft 478 kts 184°
2026-05-04 02:49 25.72548 51.39893 25160 ft 475 kts 184°
2026-05-04 02:49 25.69256 51.39862 24589 ft 472 kts 184°
2026-05-04 02:50 25.65987 51.39796 24016 ft 467 kts 186°
2026-05-04 02:50 25.62822 51.39175 23407 ft 459 kts 200°
2026-05-04 02:50 25.59987 51.37649 22725 ft 451 kts 217°
2026-05-04 02:50 25.57701 51.35342 22120 ft 442 kts 231°
2026-05-04 02:51 25.55827 51.32669 21545 ft 437 kts 235°
2026-05-04 02:51 25.54029 51.29975 20968 ft 433 kts 235°
2026-05-04 02:51 25.52237 51.27306 20388 ft 430 kts 235°
2026-05-04 02:51 25.50471 51.24697 19811 ft 427 kts 235°
2026-05-04 02:52 25.48688 51.22075 19238 ft 425 kts 235°
2026-05-04 02:52 25.46908 51.19467 18651 ft 422 kts 235°
2026-05-04 02:52 25.45138 51.16878 18049 ft 419 kts 235°
2026-05-04 02:52 25.43384 51.14316 17409 ft 416 kts 235°
2026-05-04 02:53 25.41636 51.11771 16804 ft 413 kts 234°
2026-05-04 02:53 25.39682 51.09462 16231 ft 413 kts 221°
2026-05-04 02:53 25.37232 51.07868 15863 ft 417 kts 204°
2026-05-04 02:53 25.34414 51.07109 15107 ft 422 kts 186°
2026-05-04 02:54 25.31468 51.07119 14385 ft 424 kts 174°
2026-05-04 02:54 25.28633 51.07995 13746 ft 423 kts 155°
2026-05-04 02:54 25.26201 51.09803 13084 ft 421 kts 136°
2026-05-04 02:54 25.24439 51.12346 12464 ft 415 kts 117°
2026-05-04 02:55 25.23630 51.18330 11669 ft 387 kts 76°
2026-05-04 02:55 25.24585 51.21032 11420 ft 370 kts 59°
2026-05-04 02:55 25.25818 51.23483 11205 ft 357 kts 58°
2026-05-04 02:56 25.26651 51.26027 10944 ft 352 kts 79°
2026-05-04 02:56 25.26533 51.28656 10742 ft 345 kts 100°
2026-05-04 02:56 25.25952 51.31222 10557 ft 334 kts 103°
2026-05-04 02:56 25.25378 51.33633 10365 ft 325 kts 102°
2026-05-04 02:57 25.24830 51.36020 10118 ft 317 kts 101°
2026-05-04 02:57 25.24310 51.38355 10043 ft 311 kts 101°
2026-05-04 02:57 25.23801 51.40688 10011 ft 311 kts 101°
2026-05-04 02:57 25.23298 51.43014 10010 ft 311 kts 101°
2026-05-04 02:58 25.22795 51.45334 10008 ft 311 kts 101°
2026-05-04 02:58 25.21984 51.47559 10003 ft 316 kts 122°
2026-05-04 02:58 25.20374 51.49184 10013 ft 316 kts 152°
2026-05-04 02:58 25.18354 51.50164 10008 ft 317 kts 160°
2026-05-04 02:59 25.16310 51.51017 10011 ft 318 kts 160°
2026-05-04 02:59 25.14242 51.51888 10011 ft 318 kts 159°
2026-05-04 02:59 25.12177 51.52774 10013 ft 318 kts 159°
2026-05-04 02:59 25.10121 51.53667 10008 ft 313 kts 159°
2026-05-04 03:00 25.08150 51.54531 10006 ft 297 kts 159°
2026-05-04 03:00 25.06275 51.55353 10008 ft 285 kts 159°
2026-05-04 03:00 25.04462 51.56152 10015 ft 283 kts 159°
2026-05-04 03:00 25.02631 51.56956 10023 ft 283 kts 159°
2026-05-04 03:01 25.00795 51.57761 10026 ft 283 kts 159°
2026-05-04 03:01 24.98966 51.58564 10036 ft 283 kts 159°
2026-05-04 03:01 24.97137 51.59367 10034 ft 283 kts 159°
2026-05-04 03:01 24.95298 51.60153 10040 ft 283 kts 160°
2026-05-04 03:02 24.93459 51.60932 9971 ft 283 kts 160°
2026-05-04 03:02 24.91614 51.61716 9594 ft 286 kts 160°
2026-05-04 03:02 24.89760 51.62504 9063 ft 292 kts 160°
2026-05-04 03:02 24.87839 51.63322 8521 ft 298 kts 160°
2026-05-04 03:03 24.85919 51.64231 7991 ft 304 kts 150°
2026-05-04 03:03 24.84351 51.65778 7578 ft 303 kts 124°
2026-05-04 03:03 24.83510 51.67859 7197 ft 297 kts 98°
2026-05-04 03:03 24.83527 51.70090 6827 ft 288 kts 73°
2026-05-04 03:04 24.84373 51.72027 6452 ft 278 kts 46°
2026-05-04 03:04 24.85856 51.73314 6087 ft 268 kts 20°
2026-05-04 03:04 24.87640 51.73701 5699 ft 259 kts 354°
2026-05-04 03:04 24.89386 51.73382 5330 ft 256 kts 344°
2026-05-04 03:05 24.91103 51.72888 4950 ft 255 kts 342°
2026-05-04 03:05 24.92833 51.72449 4572 ft 255 kts 348°
2026-05-04 03:05 24.94600 51.72312 4262 ft 253 kts 356°
2026-05-04 03:05 24.96333 51.72313 4081 ft 244 kts 357°
2026-05-04 03:06 24.97986 51.72327 4026 ft 230 kts 358°
2026-05-04 03:06 24.99514 51.72224 4006 ft 210 kts 340°
2026-05-04 03:06 25.00781 51.71608 4018 ft 191 kts 331°
2026-05-04 03:06 25.01929 51.70989 4047 ft 178 kts 333°
2026-05-04 03:07 25.03050 51.70457 4033 ft 178 kts 336°
2026-05-04 03:07 25.04201 51.69946 4038 ft 178 kts 336°
2026-05-04 03:07 25.05354 51.69440 4009 ft 179 kts 336°
2026-05-04 03:07 25.06511 51.68937 3849 ft 178 kts 336°
2026-05-04 03:08 25.07667 51.68429 3611 ft 178 kts 336°
2026-05-04 03:08 25.08818 51.67920 3356 ft 178 kts 336°
2026-05-04 03:08 25.09969 51.67413 3118 ft 177 kts 336°
2026-05-04 03:08 25.11087 51.66920 2881 ft 173 kts 336°
2026-05-04 03:09 25.12189 51.66433 2673 ft 167 kts 337°
2026-05-04 03:09 25.13245 51.65968 2440 ft 158 kts 337°
2026-05-04 03:09 25.14253 51.65524 2264 ft 154 kts 336°
2026-05-04 03:09 25.15250 51.65083 2068 ft 155 kts 336°
2026-05-04 03:10 25.16250 51.64641 1868 ft 155 kts 337°
2026-05-04 03:10 25.17254 51.64197 1672 ft 156 kts 338°
2026-05-04 03:10 25.18252 51.63757 1478 ft 157 kts 338°
2026-05-04 03:10 25.19263 51.63313 1270 ft 156 kts 337°
2026-05-04 03:11 25.20272 51.62866 1072 ft 155 kts 337°
2026-05-04 03:11 25.21267 51.62426 876 ft 150 kts 337°
2026-05-04 03:11 25.22204 51.62014 714 ft 141 kts 337°
2026-05-04 03:11 25.23121 51.61609 562 ft 143 kts 336°
2026-05-04 03:12 25.24055 51.61195 377 ft 146 kts 336°
2026-05-04 03:12 25.24993 51.60780 197 ft 148 kts 336°
2026-05-04 03:12 25.25950 51.60359 46 ft 145 kts 331°
2026-05-04 03:12 25.26739 51.60013 27 ft 83 kts 341°
2026-05-04 03:13 25.27055 51.59956 27 ft 25 kts
2026-05-04 03:13 25.27111 51.60027 28 ft 11 kts 116°
2026-05-04 03:13 25.27051 51.60078 27 ft 12 kts 154°
2026-05-04 03:13 25.26962 51.60125 27 ft 11 kts 143°
2026-05-04 03:14 25.26956 51.60184 28 ft 15 kts 76°
2026-05-04 03:14 25.26998 51.60307 28 ft 18 kts 71°
2026-05-04 03:14 25.27045 51.60444 28 ft 20 kts 69°
2026-05-04 03:14 25.27097 51.60583 28 ft 20 kts 68°
2026-05-04 03:15 25.27155 51.60729 28 ft 22 kts 67°
2026-05-04 03:15 25.27212 51.60889 28 ft 23 kts 71°
2026-05-04 03:15 25.27270 51.61058 28 ft 24 kts 70°
2026-05-04 03:15 25.27333 51.61229 28 ft 24 kts 67°
2026-05-04 03:16 25.27391 51.61401 28 ft 23 kts 91°
2026-05-04 03:16 25.27290 51.61492 28 ft 19 kts 157°
2026-05-04 03:16 25.27164 51.61550 28 ft 20 kts 158°
2026-05-04 03:16 25.27030 51.61607 28 ft 20 kts 160°
2026-05-04 03:17 25.26960 51.61594 28 ft 8 kts 234°
2026-05-04 03:17 25.26920 51.61534 16 ft 11 kts 221°
2026-05-04 03:17 25.26853 51.61494 28 ft 11 kts 206°
2026-05-04 03:17 25.26778 51.61453 28 ft 11 kts 218°
2026-05-04 03:18 25.26768 51.61383 28 ft 10 kts 280°
2026-05-04 03:18 25.26789 51.61319 28 ft 8 kts 292°
2026-05-04 03:18 25.26810 51.61264 28 ft 4 kts 292°
2026-05-04 03:18 25.26811 51.61261 28 ft 1 kts 293°
2026-05-04 03:19 25.26811 51.61260 28 ft 0 kts 293°